When you browse on this site, cookies collect data to enhance your experience and personalize the content and advertising you see.
Visit our Privacy Policy to learn more. By continuing to use the site, you agree to this use of cookies and data.
  • In Italy
  • List of Countries
  • For 7 days
  • Water Temperature
  • Satellite Maps
  • Weather Map
  • Weather Widgets
  • user-avatar
    Login

    Hourly Weather Wavre

    Today, 20 February, Wednesday

    Time Temperature Precipitation Wind Pressure Humidity
    00:00 +4°C° 0 mm 3 mps 760 mmHg 82%
    01:00 +4°C° 0 mm 3 mps 760 mmHg 84%
    02:00 +3°C° 0 mm 3 mps 760 mmHg 86%
    03:00 +3°C° 0 mm 3 mps 760 mmHg 87%
    04:00 +3°C° 0 mm 3 mps 760 mmHg 89%
    05:00 +3°C° 0 mm 3 mps 760 mmHg 90%
    06:00 +3°C° 0 mm 3 mps 760 mmHg 91%
    07:00 +4°C° 0 mm 3 mps 761 mmHg 88%
    08:00 +5°C° 0 mm 4 mps 761 mmHg 85%
    09:00 +6°C° 0 mm 4 mps 761 mmHg 83%
    10:00 +7°C° 0 mm 4 mps 761 mmHg 76%
    11:00 +8°C° 0 mm 4 mps 761 mmHg 70%
    12:00 +11°C° 0 mm 4 mps 761 mmHg 63%
    13:00 +11°C° 0 mm 4 mps 761 mmHg 62%
    14:00 +11°C° 0 mm 4 mps 761 mmHg 61%
    15:00 +11°C° 0 mm 4 mps 761 mmHg 60%
    16:00 +10°C° 0 mm 3 mps 761 mmHg 67%
    17:00 +9°C° 0 mm 3 mps 762 mmHg 73%
    18:00 +8°C° 0 mm 2 mps 762 mmHg 80%
    19:00 +7°C° 0 mm 2 mps 762 mmHg 82%
    20:00 +7°C° 0 mm 2 mps 762 mmHg 85%
    21:00 +5°C° 0 mm 3 mps 763 mmHg 87%
    22:00 +5°C° 0 mm 3 mps 763 mmHg 88%
    23:00 +5°C° 0 mm 3 mps 763 mmHg 89%

    Tomorrow, 21 February, Thursday

    Time Temperature Precipitation Wind Pressure Humidity
    00:00 +5°C° 0 mm 3 mps 763 mmHg 90%
    01:00 +5°C° 0 mm 3 mps 763 mmHg 90%
    02:00 +5°C° 0 mm 3 mps 764 mmHg 91%
    03:00 +5°C° 0 mm 3 mps 764 mmHg 91%
    04:00 +5°C° 0 mm 3 mps 764 mmHg 92%
    05:00 +5°C° 0 mm 3 mps 764 mmHg 92%
    06:00 +5°C° 0 mm 3 mps 764 mmHg 93%
    07:00 +5°C° 0 mm 3 mps 764 mmHg 90%
    08:00 +7°C° 0 mm 3 mps 765 mmHg 87%
    09:00 +8°C° 0 mm 3 mps 765 mmHg 84%
    10:00 +10°C° 0 mm 3 mps 765 mmHg 77%
    11:00 +11°C° 0 mm 3 mps 765 mmHg 70%
    12:00 +12°C° 0 mm 3 mps 765 mmHg 63%
    13:00 +12°C° 0 mm 3 mps 765 mmHg 64%
    14:00 +13°C° 0 mm 3 mps 765 mmHg 65%
    15:00 +14°C° 0 mm 2 mps 765 mmHg 67%
    16:00 +13°C° 0 mm 2 mps 765 mmHg 70%
    17:00 +12°C° 0 mm 2 mps 766 mmHg 74%
    18:00 +11°C° 0 mm 1 mps 766 mmHg 77%
    19:00 +11°C° 0 mm 1 mps 766 mmHg 80%
    20:00 +10°C° 0 mm 1 mps 767 mmHg 82%
    21:00 +9°C° 0 mm 1 mps 767 mmHg 85%
    22:00 +9°C° 0 mm 1 mps 767 mmHg 87%
    23:00 +8°C° 0 mm 1 mps 768 mmHg 88%

    Day after tomorrow, 22 February, Friday

    Time Temperature Precipitation Wind Pressure Humidity
    00:00 +8°C° 0 mm 1 mps 768 mmHg 90%
    01:00 +8°C° 0 mm 1 mps 768 mmHg 90%
    02:00 +8°C° 0 mm 1 mps 768 mmHg 90%
    03:00 +7°C° 0 mm 1 mps 768 mmHg 91%
    04:00 +7°C° 0 mm 1 mps 769 mmHg 91%
    05:00 +7°C° 0 mm 1 mps 769 mmHg 91%
    06:00 +7°C° 0 mm 1 mps 769 mmHg 91%
    07:00 +8°C° 0 mm 1 mps 769 mmHg 87%
    08:00 +9°C° 0 mm 1 mps 770 mmHg 84%
    09:00 +10°C° 0 mm 1 mps 770 mmHg 81%
    10:00 +12°C° 0 mm 1 mps 770 mmHg 75%
    11:00 +12°C° 0 mm 0 mps 770 mmHg 69%
    12:00 +13°C° 0 mm 0 mps 770 mmHg 63%
    13:00 +14°C° 0 mm 0 mps 770 mmHg 62%
    14:00 +15°C° 0 mm 1 mps 770 mmHg 60%
    15:00 +15°C° 0 mm 1 mps 770 mmHg 59%
    16:00 +14°C° 0 mm 2 mps 770 mmHg 65%
    17:00 +12°C° 0 mm 2 mps 770 mmHg 72%
    18:00 +10°C° 0 mm 2 mps 770 mmHg 79%
    19:00 +9°C° 0 mm 2 mps 770 mmHg 81%
    20:00 +9°C° 0 mm 2 mps 770 mmHg 84%
    21:00 +8°C° 0 mm 3 mps 770 mmHg 86%
    22:00 +8°C° 0 mm 2 mps 770 mmHg 86%
    23:00 +8°C° 0 mm 2 mps 770 mmHg 87%

    23 February, Saturday

    Time Temperature Precipitation Wind Pressure Humidity
    00:00 +7°C° 0 mm 2 mps 770 mmHg 87%
    01:00 +7°C° 0 mm 2 mps 770 mmHg 88%
    02:00 +7°C° 0 mm 2 mps 770 mmHg 88%
    03:00 +7°C° 0 mm 2 mps 769 mmHg 88%
    04:00 +7°C° 0 mm 2 mps 769 mmHg 89%
    05:00 +7°C° 0 mm 2 mps 769 mmHg 90%
    06:00 +6°C° 0 mm 2 mps 769 mmHg 90%
    07:00 +7°C° 0 mm 2 mps 769 mmHg 87%
    08:00 +8°C° 0 mm 2 mps 769 mmHg 83%
    09:00 +9°C° 0 mm 3 mps 769 mmHg 80%
    10:00 +11°C° 0 mm 3 mps 769 mmHg 73%
    11:00 +13°C° 0 mm 2 mps 769 mmHg 66%
    12:00 +15°C° 0 mm 2 mps 769 mmHg 59%
    13:00 +15°C° 0 mm 2 mps 769 mmHg 57%
    14:00 +16°C° 0 mm 2 mps 768 mmHg 54%
    15:00 +16°C° 0 mm 2 mps 768 mmHg 52%
    16:00 +14°C° 0 mm 2 mps 768 mmHg 57%
    17:00 +13°C° 0 mm 2 mps 768 mmHg 62%
    18:00 +10°C° 0 mm 2 mps 768 mmHg 67%
    19:00 +9°C° 0 mm 2 mps 769 mmHg 69%
    20:00 +9°C° 0 mm 2 mps 769 mmHg 70%
    21:00 +8°C° 0 mm 3 mps 769 mmHg 71%
    22:00 +7°C° 0 mm 2 mps 769 mmHg 71%
    23:00 +7°C° 0 mm 2 mps 769 mmHg 72%

    24 February, Sunday

    Time Temperature Precipitation Wind Pressure Humidity
    00:00 +6°C° 0 mm 2 mps 769 mmHg 72%
    01:00 +6°C° 0 mm 2 mps 769 mmHg 73%
    02:00 +6°C° 0 mm 1 mps 769 mmHg 74%
    03:00 +6°C° 0 mm 1 mps 769 mmHg 75%
    04:00 +6°C° 0 mm 1 mps 769 mmHg 75%
    05:00 +6°C° 0 mm 1 mps 769 mmHg 75%
    06:00 +5°C° 0 mm 1 mps 769 mmHg 75%
    07:00 +7°C° 0 mm 1 mps 769 mmHg 70%
    08:00 +8°C° 0 mm 1 mps 769 mmHg 65%
    09:00 +8°C° 0 mm 0 mps 770 mmHg 60%
    10:00 +10°C° 0 mm 1 mps 770 mmHg 55%
    11:00 +12°C° 0 mm 1 mps 770 mmHg 50%
    12:00 +13°C° 0 mm 1 mps 769 mmHg 46%
    13:00 +14°C° 0 mm 1 mps 769 mmHg 45%
    14:00 +14°C° 0 mm 1 mps 769 mmHg 44%
    15:00 +14°C° 0 mm 1 mps 769 mmHg 44%
    16:00 +13°C° 0 mm 1 mps 769 mmHg 49%
    17:00 +11°C° 0 mm 1 mps 769 mmHg 55%
    18:00 +10°C° 0 mm 1 mps 769 mmHg 60%
    19:00 +9°C° 0 mm 1 mps 770 mmHg 64%
    20:00 +9°C° 0 mm 1 mps 770 mmHg 68%
    21:00 +8°C° 0 mm 1 mps 770 mmHg 72%
    22:00 +8°C° 0 mm 1 mps 770 mmHg 75%
    23:00 +8°C° 0 mm 1 mps 770 mmHg 78%

    25 February, Monday

    Time Temperature Precipitation Wind Pressure Humidity
    00:00 +7°C° 0 mm 1 mps 770 mmHg 80%
    01:00 +7°C° 0 mm 1 mps 770 mmHg 83%
    02:00 +7°C° 0 mm 1 mps 770 mmHg 85%
    03:00 +6°C° 0 mm 1 mps 770 mmHg 88%
    04:00 +6°C° 0 mm 1 mps 770 mmHg 89%
    05:00 +5°C° 0 mm 2 mps 770 mmHg 90%
    06:00 +5°C° 0 mm 2 mps 770 mmHg 91%
    07:00 +6°C° 0 mm 2 mps 770 mmHg 85%
    08:00 +7°C° 0 mm 2 mps 771 mmHg 80%
    09:00 +9°C° 0 mm 1 mps 771 mmHg 74%
    10:00 +9°C° 0 mm 2 mps 771 mmHg 70%
    11:00 +12°C° 0 mm 2 mps 771 mmHg 66%
    12:00 +12°C° 0 mm 3 mps 771 mmHg 61%
    13:00 +13°C° 0 mm 3 mps 770 mmHg 61%
    14:00 +13°C° 0 mm 3 mps 770 mmHg 60%
    15:00 +13°C° 0 mm 3 mps 770 mmHg 60%
    16:00 +12°C° 0 mm 3 mps 770 mmHg 65%
    17:00 +10°C° 0 mm 3 mps 770 mmHg 71%
    18:00 +9°C° 0 mm 3 mps 770 mmHg 76%
    19:00 +8°C° 0 mm 3 mps 770 mmHg 77%
    20:00 +8°C° 0 mm 3 mps 770 mmHg 78%
    21:00 +7°C° 0 mm 3 mps 770 mmHg 79%
    22:00 +7°C° 0 mm 2 mps 769 mmHg 78%
    23:00 +7°C° 0 mm 2 mps 769 mmHg 77%
    Show more